Tracking 25701 objects as of 3-Jul-2022
HD Live streaming from Space Station
objects crossing your sky now

SPACEBEE-137

Track SPACEBEE-137 now!
10-day predictions


NORAD ID: 52186
Int'l Code: 2022-033AF
Perigee: 498.8 km
Apogee: 509.4 km
Inclination: 97.4 °
Period: 94.6 minutes
Semi major axis: 6875 km
RCS: Unknown
Launch date: April 1, 2022
Source: United States (US)
Launch site: AIR FORCE EASTERN TEST RANGE (AFETR)
aabbcc
Your satellite tracking list
Your tracking list is empty




NASA's NSSDC Master Catalog

Two Line Element Set (TLE):
1 52186U 22033AF  22183.44851666  .00005130  00000-0  22130-3 0  9998
2 52186  97.3827 264.6122 0007732 333.3966  26.6873 15.22950045 13969
Source of the keplerian elements: AFSPC